Tracking 25710 objects as of 5-Jul-2022
HD Live streaming from Space Station
objects crossing your sky now

FENGYUN 1C DEB

Track FENGYUN 1C DEB now!
10-day predictions


NORAD ID: 31931
Int'l Code: 1999-025CMG
Perigee: 794.5 km
Apogee: 1,440.6 km
Inclination: 97.8 °
Period: 107.5 minutes
Semi major axis: 7488 km
RCS: 0.0158 m2 (small)
Launch date: May 10, 1999
Source: People's Republic of China (PRC)
Launch site: Taiyaun Space Center, China (TSC)

Note: This is SATELLITE DEBRIS
aabbcc
Your satellite tracking list
Your tracking list is empty




NASA's NSSDC Master Catalog

Two Line Element Set (TLE):
1 31931U 99025CMG 22185.31020262  .00000308  00000-0  36598-3 0  9991
2 31931  97.8018  42.4231 0431391 290.6965  64.8439 13.39687574483693
Source of the keplerian elements: AFSPC